Regional Weather Roundup
Issued by NWS

Home | Current Version | Previous Version | Graphics & Text | Print | Product List | Glossary On
Versions: 1 2 3 4 5 6 7 8 9 10 11 12 13 14 15 16 17 18 19 20 21 22 23 24 25 26 27 28 29 30 31 32 33 34 35 36 37 38 39 40 41 42 43 44 45 46 47 48 49 50
000
ASUS43 KDTX 262101
RWRMI
MICHIGAN HOURLY REGIONAL WEATHER ROUNDUP
NATIONAL WEATHER SERVICE DETROIT/PONTIAC MI
500 PM EDT THU APR 26 2018

NOTE: "FAIR" INDICATES FEW OR NO CLOUDS BELOW 12,000 FEET WITH NO
SIGNIFICANT WEATHER AND/OR OBSTRUCTION TO VISIBILITY.

MIZ047>049-052>055-059>063-066>070-074>076-081>083-262200-
SOUTHEAST LOWER MICHIGAN

CITY           SKY/WX    TMP DP  RH WIND       PRES   REMARKS
ADRIAN         FAIR      61  33  35 NW7       29.87F
ALMA           FAIR      63  30  28 SW10G18   29.85F
ANN ARBOR      FAIR      62  34  35 VRB5      29.85F
BAD AXE        FAIR      60   4  10 W7        29.87S
CARO           FAIR      61  20  20 W9        29.85F
DETROIT CITY   FAIR      60  38  43 SW7       29.85F
DETROIT        FAIR      63  34  33 SW9       29.86F
FLINT          FAIR      61  24  24 W8        29.86F
GROSSE ILE     FAIR      53  40  62 S7        29.86F
HILLSDALE      FAIR      61  32  33 W5        29.86F
HOWELL         FAIR      62  25  24 W14       29.85F

CITY           SKY/WX    TMP DP  RH WIND       PRES   REMARKS
JACKSON        FAIR      63  30  28 W6        29.85F
LAMBERTVILLE   FAIR      64  33  31 NW5       29.86F
LANSING        FAIR      62  27  26 W10G16    29.87F
LAPEER         FAIR      61  24  24 W8        29.86F
MASON          FAIR      64  19  17 W8        29.86F
MT. CLEMENS    MOSUNNY   59  37  44 S6        29.89F
PONTIAC        PTSUNNY   62  27  26 NW12G17   29.84F
PORT HOPE        N/A     43  36  76 SE15      29.86F
PORT HURON     FAIR      61  34  36 SW9G16    29.86F
TRI CITIES     FAIR      63  30  28 SW9       29.86F
MIDLAND        FAIR      63  31  30 W10       29.84F
TROY           FAIR      64  28  25 W6        29.86F
SAGINAW HB     FAIR      61  27  27 W9G16     29.85F
$$
MIZ043>046-050>051-056>058-064>065-071>073-077>080-262200-
SOUTHWEST LOWER MICHIGAN

CITY           SKY/WX    TMP DP  RH WIND       PRES   REMARKS
BATTLE CREEK   FAIR      64  27  24 NW6       29.86F
BENTON HARBOR  FAIR      53  31  42 VRB6      29.91F
BIG RAPIDS     FAIR      60  19  21 W9G20     29.84F
COLDWATER      FAIR      64  32  30 W8        29.86F
FREMONT        FAIR      57  13  17 SW12      29.87F
HOLLAND        FAIR      56  29  35 W12       29.90F
GRAND RAPIDS   PTSUNNY   61  25  25 W12       29.88F
IONIA          FAIR      64  26  24 SW12      29.85F
KALAMAZOO      FAIR      65  28  24 W12G17    29.86F
LUDINGTON      FAIR      56  32  40 SW14      29.86F
MARSHALL       FAIR      63  26  24 W7        29.86S
MOUNT PLEASANT FAIR      63  30  29 W10       29.83F
MUSKEGON       PTSUNNY   55  31  39 SW9       29.89F
SOUTH HAVEN    FAIR      54  30  40 NW8       29.91F
$$
MIZ016>042-262200-
NORTHERN LOWER MICHIGAN

CITY           SKY/WX    TMP DP  RH WIND       PRES   REMARKS
ALPENA         FAIR      56  33  42 SE12      29.82F
BEAVER ISLAND  FAIR      55  29  37 SW10G20   29.81F
BELLAIRE       FAIR      60  25  25 W7        29.81F
CADILLAC       FAIR      59  25  27 SW15      29.83F
CHARLEVOIX     FAIR      59  28  30 W12G20    29.84F
FRANKFORT      FAIR      54  32  43 SW7G16    29.83F
GAYLORD        FAIR      56  25  30 W10       29.81F
HARBOR SPRINGS FAIR      55  29  38 W7        29.82S
HOUGHTON LAKE  FAIR      60  26  27 W7        29.82F
MANISTEE       FAIR      60  30  32 SW7       29.84F
OSCODA         FAIR      56  26  32 S12       29.83S
PELLSTON       FAIR      59  26  28 W15       29.82F
ROGERS CITY    FAIR      48  30  49 E6        29.83F
TRAVERSE CITY  CLOUDY    63  26  24 SW9G20    29.80F
$$
MIZ007>008-015-262200-
EASTERN UPPER MICHIGAN

CITY           SKY/WX    TMP DP  RH WIND       PRES   REMARKS
KINROSS        FAIR      54  29  38 SW8       29.80F
MACKINAC ISLAN FAIR      50  31  47 W12G22    29.82S
NEWBERRY       FAIR      51  31  47 S10       29.78F
MUNISING         N/A     49  31  49 CALM      29.75S
$$
MIZ004>006-011>014-085-262200-
CENTRAL UPPER MICHIGAN

CITY           SKY/WX    TMP DP  RH WIND       PRES   REMARKS
MANISTIQUE     FAIR      43  36  76 S12G20    29.80F
ESCANABA       FAIR      54  33  45 S14G23    29.76F
SAWYER-GWINN   CLOUDY    55  27  33 NE14      29.77R
$$
MIZ001>003-009>011-084-262200-
WESTERN UPPER MICHIGAN

CITY           SKY/WX    TMP DP  RH WIND       PRES   REMARKS
IRON MOUNTAIN  PTSUNNY   64  29  26 NW14      29.73F
HOUGHTON       CLOUDY    41  32  70 N18G28    29.82R
COPPER HARBOR    N/A     37  33  85 N10       29.85R WCI  30
IRONWOOD       CLOUDY    43  35  73 N9        29.89R
$$

ABBREVIATIONS USED IN REMARKS
   TC - TEMPERATURE IN CELSIUS
  WCI - WIND CHILL INDEX
   HX - HEAT INDEX
  VSB - VISIBILITY





USA.gov is the U.S. government's official web portal to all federal, state and local government web resources and services.